Regional Weather Roundup
Issued by NWS Sioux Falls, SD

Home | Current Version | Previous Version | Text Only | Print | Product List | Glossary On
Versions: 1 2 3 4 5 6 7 8 9 10 11 12 13 14 15 16 17 18 19 20 21 22 23 24 25 26 27 28 29 30 31 32 33 34 35 36 37 38 39 40 41 42 43 44 45 46 47 48 49 50
000
ASUS43 KFSD 011410
RWRFSD

WEATHER ROUNDUP FOR SE SOUTH DAKOTA/SW MINNESOTA/NW IOWA
NATIONAL WEATHER SERVICE SIOUX FALLS SD
900 AM CDT WED APR 01 2015

NOTE: "FAIR" INDICATES FEW OR NO CLOUDS BELOW 12,000 FEET WITH NO
SIGNIFICANT WEATHER AND OR OBSTRUCTIONS TO VISIBILITY.


SDZ038>040-050-052>070-011500-
SOUTHEAST SOUTH DAKOTA

CITY           SKY/WX    TMP DP  RH WIND       PRES   REMARKS
BROOKINGS      MOSUNNY   61  37  41 S30G48    29.58F
CHAMBERLAIN    CLOUDY    63  38  39 S21G26    29.47S
HURON          CLOUDY    59  34  39 S20G28    29.47F
MADISON        FAIR      59  37  44 S31G41    29.58F
MITCHELL       CLOUDY    62  37  39 S14G23    29.53F
SIOUX FALLS    PTSUNNY   61  34  36 S29G39    29.63F
WINNER         FAIR      64  36  35 S25G35    29.48F
YANKTON        MOSUNNY   63  37  39 S20G31    29.64S
$$

MNZ071-072-080-081-089-090-097-098-011500-
SOUTHWEST MINNESOTA

CITY           SKY/WX    TMP DP  RH WIND       PRES   REMARKS
FAIRMONT       MOSUNNY   54  34  47 S21       29.73F
JACKSON        MOSUNNY   59  30  33 S20G25    29.72F
LUVERNE        MOSUNNY   59  32  36 S23G29    29.68S
MARSHALL       PTSUNNY   61  32  33 SW38G47   29.59F
MONTEVIDEO     MOSUNNY   63  36  36 SW21G30   29.56F
PIPESTONE      MOSUNNY   57  34  41 S24G32    29.64F
REDWOOD FALLS  MOSUNNY   64  32  30 S30G40    29.62F
TRACY          PTSUNNY   60  33  35 S23G37    29.63F
WINDOM         PTSUNNY   61  30  31 S21G29    29.68F
WORTHINGTON    SUNNY     57  30  35 S26G39    29.70F
$$

IAZ001>003-012>014-020>022-031-032-NEZ013-014-SDZ071-011500-
NORTHWEST IOWA

CITY           SKY/WX    TMP DP  RH WIND       PRES   REMARKS
CHEROKEE       MOSUNNY   60  33  35 S21G26    29.75S
DENISON        SUNNY     59  32  36 S21       29.78S
ESTHERVILLE    MOSUNNY   53  35  50 S17       29.74F
LE MARS        MOSUNNY   61  34  36 S21G30    29.71F
ORANGE CITY    MOSUNNY   61  30  31 S21G31    29.71F
SHELDON        MOSUNNY   59  34  38 S22G30    29.69F
SIOUX CITY     SUNNY     63  33  32 SE18G29   29.73F
SPENCER        MOSUNNY   60  34  37 S23G30    29.73F
STORM LAKE     SUNNY     61  32  33 S26G38    29.76F
$$

ABBREVIATIONS USED IN REMARKS
   TC - TEMPERATURE IN CELSIUS
  WCI - WIND CHILL INDEX
   HX - HEAT INDEX
  VSB - VISIBILITY




USA.gov is the U.S. government's official web portal to all federal, state and local government web resources and services.